Location: Aufkirchen
(47.9603°N, 11.3653°E)
Time: 11:50:11
(UTC+01:00)

Tiros 1 - Pass Details

Date: 28 November 2020
Orbit: 630 x 663 km, 48.4° (Epoch: 21 January)

Event Time Altitude Azimuth Distance (km) Brightness Sun altitude
Rises 19:09:04 0° 277° (W) 2,988 11.8 -26.7°
Reaches altitude 10° 19:11:26 10° 277° (W) 2,072 10.7 -27.1°
Enters shadow 19:15:22 60° 280° (W) 748 7.6 -27.8°
Maximum altitude 19:16:13 89° 4° (N) 659 - -27.9°
Drops below altitude 10° 19:20:58 10° 99° (E) 2,050 - -28.7°
Sets 19:23:18 0° 99° (E) 2,954 - -29.1°
